TimeCST,TemperatureF,Dew PointF,Humidity,Sea Level PressureIn,VisibilityMPH,Wind Direction,Wind SpeedMPH,Gust SpeedMPH,PrecipitationIn,Events,Conditions,WindDirDegrees,DateUTC
12:00 AM,77.0,69.8,78,29.86,-9999.0,ESE,6.9,-,N/A,,Clear,110,2013-02-24 06:00:00
1:00 AM,77.0,69.8,78,29.83,-9999.0,East,6.9,-,N/A,,Clear,100,2013-02-24 07:00:00
2:00 AM,75.2,69.8,83,29.83,-9999.0,ESE,6.9,-,N/A,,Clear,110,2013-02-24 08:00:00
3:00 AM,75.2,68.0,78,29.83,-9999.0,ESE,6.9,-,N/A,,Clear,120,2013-02-24 09:00:00
4:00 AM,75.2,69.8,83,29.83,-9999.0,ESE,6.9,-,N/A,,Clear,120,2013-02-24 10:00:00
5:00 AM,75.2,69.8,83,29.83,-9999.0,ESE,6.9,-,N/A,,Clear,120,2013-02-24 11:00:00
6:00 AM,73.4,69.8,88,29.83,-9999.0,ESE,4.6,-,N/A,,Clear,110,2013-02-24 12:00:00
7:00 AM,75.2,69.8,83,29.86,6.2,East,4.6,-,N/A,,Partly Cloudy,100,2013-02-24 13:00:00
8:00 AM,82.4,69.8,66,29.86,6.2,East,11.5,-,N/A,,Partly Cloudy,100,2013-02-24 14:00:00
9:00 AM,84.2,68.0,58,29.89,6.2,East,16.1,-,N/A,,Partly Cloudy,100,2013-02-24 15:00:00
10:00 AM,87.8,68.0,52,29.89,6.2,ESE,13.8,-,N/A,,Partly Cloudy,110,2013-02-24 16:00:00
11:00 AM,89.6,68.0,49,29.86,6.2,East,18.4,-,N/A,,Partly Cloudy,90,2013-02-24 17:00:00
12:00 PM,89.6,69.8,52,29.83,6.2,East,16.1,-,N/A,,Partly Cloudy,80,2013-02-24 18:00:00
1:00 PM,91.4,68.0,46,29.77,6.2,East,13.8,-,N/A,,Partly Cloudy,80,2013-02-24 19:00:00
2:00 PM,93.2,66.2,41,29.74,6.2,East,11.5,-,N/A,,Partly Cloudy,80,2013-02-24 20:00:00
3:00 PM,93.2,66.2,41,29.71,6.2,East,16.1,-,N/A,,Partly Cloudy,100,2013-02-24 21:00:00
4:00 PM,95.0,64.4,36,29.71,6.2,ESE,18.4,-,N/A,,Partly Cloudy,110,2013-02-24 22:00:00
5:00 PM,93.2,66.2,41,29.71,6.2,ESE,16.1,-,N/A,,Partly Cloudy,120,2013-02-24 23:00:00
6:00 PM,87.8,68.0,52,29.71,6.2,SE,16.1,-,N/A,,Partly Cloudy,140,2013-02-25 00:00:00
7:00 PM,86.0,69.8,58,29.74,6.2,ESE,9.2,-,N/A,,Partly Cloudy,120,2013-02-25 01:00:00
8:00 PM,84.2,69.8,62,29.77,6.2,ESE,11.5,-,N/A,,Partly Cloudy,120,2013-02-25 02:00:00
9:00 PM,82.4,73.4,74,29.80,6.2,ESE,9.2,-,N/A,,Partly Cloudy,110,2013-02-25 03:00:00
10:00 PM,82.4,73.4,74,29.83,6.2,ESE,11.5,-,N/A,,Partly Cloudy,110,2013-02-25 04:00:00
11:00 PM,80.6,71.6,74,29.83,6.2,ESE,9.2,-,N/A,,Partly Cloudy,120,2013-02-25 05:00:00